Total_Precipitation_Accumulation
2.98 3.19 4.00 3.78 3.48 3.27 3.13 3.02 2.84 2.81 2.92 3.08 3.04 3.04 3.06 3.15 3.26 3.36 3.53 3.63 3.88 4.18 4.39 4.44 4.16 4.19 4.16 4.08 3.70 3.18 2.78 2.75 2.69 2.43 2.19 2.13 2.14 2.32 2.77 2.97 2.75 2.16 2.12
2.51 2.88 3.56 3.42 3.24 3.10 2.95 2.91 2.80 2.76 2.92 3.08 3.10 3.03 3.10 3.08 3.13 3.15 3.36 3.72 4.06 4.25 4.34 4.06 3.91 3.97 3.92 3.90 3.45 3.02 2.71 2.65 2.59 2.56 2.41 2.08 2.24 2.60 2.99 3.07 3.07 2.26 2.18
2.18 2.54 2.71 3.05 2.96 2.87 2.78 2.88 3.21 3.25 3.19 3.10 3.05 2.94 2.98 2.98 3.04 3.17 3.42 3.69 3.95 3.93 3.93 3.78 3.66 3.59 3.50 3.50 3.17 2.85 2.69 2.57 2.57 2.75 2.90 2.01 1.82 2.56 2.89 2.95 2.73 2.13 1.96
2.03 2.26 2.36 2.79 2.72 2.49 2.63 2.89 3.22 3.38 3.34 3.23 3.08 2.91 2.87 2.99 3.16 3.27 3.23 3.35 3.52 3.43 3.27 3.37 3.50 3.44 3.28 3.13 2.90 2.77 2.71 2.66 2.82 3.16 3.14 2.20 1.68 2.15 2.61 2.59 2.30 1.96 1.78
2.00 2.23 2.59 2.69 2.51 2.36 2.47 2.78 3.12 3.29 3.23 3.14 3.01 2.90 2.97 2.93 2.98 3.02 2.98 3.12 3.20 3.24 3.17 3.10 3.25 3.36 3.25 3.14 2.89 2.79 2.71 2.77 3.11 3.11 2.66 2.48 2.36 2.36 2.43 2.40 2.21 1.98 1.83
1.65 2.00 2.44 2.65 2.50 2.42 2.66 2.80 2.91 2.95 2.87 2.81 2.79 2.87 2.86 2.78 2.82 2.80 2.76 2.82 3.06 3.10 2.88 2.81 3.12 3.36 3.38 3.16 2.84 2.92 2.99 3.10 2.98 2.42 2.24 2.23 2.31 2.45 2.38 2.49 2.45 2.20 2.01
1.51 1.87 2.29 2.66 2.48 2.46 2.57 2.66 2.77 2.84 2.79 2.67 2.63 2.56 2.61 2.69 2.73 2.64 2.47 2.56 2.78 2.79 2.61 2.64 2.98 3.19 3.26 3.09 2.95 3.21 3.20 3.19 2.68 2.24 2.12 2.30 2.15 2.10 2.27 2.55 2.75 2.52 2.17
1.33 1.63 1.97 2.44 2.42 2.35 2.40 2.50 2.65 2.74 2.73 2.61 2.40 2.30 2.38 2.48 2.48 2.42 2.35 2.52 2.52 2.41 2.45 2.61 2.92 2.78 2.90 3.14 3.20 3.45 3.34 2.81 2.15 2.13 1.98 2.02 1.71 1.83 2.23 2.49 2.63 2.49 2.19
1.24 1.37 1.73 2.10 2.26 2.30 2.49 2.51 2.45 2.39 2.30 2.23 2.09 2.15 2.30 2.39 2.30 2.23 2.27 2.40 2.35 2.40 2.55 2.77 2.92 2.67 2.82 3.19 3.29 3.38 3.23 2.71 2.11 2.09 1.87 2.06 1.94 2.14 2.49 2.56 2.48 2.46 2.20
1.49 1.49 1.71 1.88 1.99 2.08 2.22 2.36 2.33 2.28 2.09 1.97 1.93 2.00 2.08 2.18 2.18 2.10 2.09 2.31 2.30 2.40 2.47 2.70 2.79 2.63 2.94 3.19 3.30 3.26 3.11 2.53 1.94 1.95 2.02 1.87 2.03 2.45 2.81 2.79 2.67 2.59 2.41
1.80 1.79 1.72 1.67 1.70 1.88 1.96 2.06 2.31 2.31 2.18 2.07 2.12 2.15 2.16 2.17 1.97 1.97 2.07 2.48 2.49 2.61 2.65 2.80 2.90 3.13 3.24 3.11 3.29 3.21 2.83 2.36 2.26 2.22 2.24 1.95 2.21 2.76 3.03 2.98 2.91 2.92 2.73
1.91 1.95 1.96 1.85 1.67 1.79 1.82 2.07 2.25 1.97 2.05 2.16 2.29 2.14 2.15 2.24 2.23 2.03 2.43 2.75 2.92 3.20 3.28 3.39 3.57 3.46 3.16 3.16 3.62 3.54 2.68 2.51 2.34 2.36 2.60 2.35 2.54 3.12 3.41 3.22 3.09 3.14 3.05
1.99 1.79 1.97 2.22 2.14 2.12 2.19 2.03 2.03 2.08 2.23 2.25 2.07 2.03 2.22 1.97 1.84 2.05 2.39 2.72 3.02 3.35 3.62 3.83 3.93 3.59 3.56 3.81 3.93 3.50 2.75 2.43 2.39 2.21 2.56 2.61 2.81 3.39 3.83 3.63 3.45 3.41 3.36
2.21 1.88 1.89 2.12 2.40 2.38 2.24 2.12 2.01 2.00 2.12 2.11 2.20 2.06 2.22 2.22 2.21 2.42 2.91 3.05 3.27 3.40 3.92 4.02 4.41 4.18 3.85 3.55 3.59 3.41 2.98 2.82 2.59 2.64 2.93 2.53 2.71 3.30 3.99 4.08 3.91 3.70 3.50
2.48 2.22 2.08 2.05 2.35 2.46 2.46 2.32 2.04 2.13 2.11 2.25 2.39 2.27 2.32 2.43 2.74 3.05 3.21 3.57 3.49 3.53 3.90 4.37 4.37 4.65 4.62 4.41 4.08 3.69 3.57 3.28 2.94 3.03 3.09 2.89 2.79 3.09 3.81 4.38 4.31 4.06 3.74
2.81 2.69 2.42 2.26 2.33 2.48 2.56 2.56 2.49 2.39 2.56 2.58 2.64 2.63 2.72 2.94 3.30 3.68 3.77 3.91 3.72 3.73 4.21 4.55 4.63 5.22 5.07 4.82 4.25 3.92 3.69 3.53 3.22 3.08 3.24 3.35 2.94 2.84 3.37 4.26 4.67 4.54 4.33
3.01 3.12 3.01 2.85 2.84 2.97 3.27 3.20 2.90 2.93 2.94 3.03 3.17 3.23 3.19 3.31 3.79 4.12 4.10 4.01 4.03 4.03 4.44 4.74 4.86 5.02 4.74 4.51 4.35 4.10 3.90 3.66 3.24 3.23 3.25 3.44 3.24 3.04 3.30 3.76 4.33 4.57 4.75
3.08 3.50 3.60 3.33 3.54 3.76 4.05 4.04 3.68 3.61 3.53 3.49 3.40 3.44 3.41 3.54 3.84 4.41 4.20 4.04 4.44 4.28 4.55 5.18 5.23 5.16 5.11 4.84 4.64 4.18 3.90 3.72 3.19 3.11 3.13 3.34 3.69 3.20 3.30 3.70 4.00 4.20 4.84
3.14 3.70 4.01 4.13 4.34 4.42 4.56 4.61 4.40 4.21 4.04 3.69 3.65 3.64 3.51 3.58 3.76 4.23 4.14 4.26 4.27 4.60 4.79 4.46 5.22 5.35 5.20 4.88 4.15 3.92 3.51 3.36 3.31 2.99 3.12 3.16 3.55 3.39 3.42 3.49 3.78 4.00 4.76
3.43 3.90 4.49 4.80 4.98 4.78 4.79 4.87 4.62 4.22 4.03 3.80 3.75 3.70 3.50 3.59 3.66 4.20 4.05 4.03 4.09 4.59 4.77 4.71 5.21 5.21 4.86 4.72 3.68 3.52 3.39 3.00 2.96 3.01 2.81 3.02 3.29 2.97 3.24 3.55 3.98 3.54 3.90
3.91 4.22 4.56 5.07 5.40 5.33 5.43 5.35 5.20 4.84 4.58 4.15 3.68 3.30 3.25 3.29 3.55 4.13 3.79 4.22 4.11 4.31 4.43 4.40 4.79 4.92 4.52 4.48 4.39 3.91 3.13 2.68 2.63 2.63 2.69 2.88 2.88 3.00 3.67 4.28 4.44 4.25 4.01
3.72 4.24 4.63 4.69 4.71 4.61 4.88 5.27 5.46 5.40 4.85 4.18 3.78 3.64 3.25 3.21 3.40 3.67 4.02 3.93 3.98 4.19 4.19 4.22 4.59 4.58 4.10 4.19 4.45 4.51 3.72 3.34 2.77 2.14 2.47 2.62 2.75 3.19 3.51 3.74 4.14 4.50 4.64
3.16 3.72 3.89 3.80 3.78 3.70 3.85 4.26 4.57 4.88 4.64 4.31 3.98 3.71 3.28 3.16 3.19 3.39 3.71 3.75 3.83 3.67 3.89 4.12 4.10 4.14 4.06 3.98 4.01 4.50 4.17 3.70 3.08 2.45 2.25 2.38 2.78 3.13 3.21 3.46 3.50 3.84 4.15
2.39 2.65 2.81 3.02 3.17 3.23 3.26 3.47 3.72 4.01 4.08 4.08 4.03 3.68 3.28 2.98 2.96 3.13 3.30 3.32 3.39 3.34 3.63 3.34 3.49 3.84 4.07 3.91 3.79 3.68 3.75 3.90 3.76 3.04 2.48 2.35 2.66 2.86 2.87 2.85 3.15 3.60 3.72
2.15 2.38 2.52 2.84 3.05 3.15 3.10 3.15 3.36 3.70 3.76 3.59 3.48 3.58 3.35 3.08 2.82 2.76 2.97 3.08 3.06 3.00 3.12 3.19 3.56 3.52 3.67 3.69 3.70 3.66 3.75 3.77 3.56 3.37 2.96 2.79 2.72 2.45 2.44 2.63 2.96 3.30 3.47
1.94 2.15 2.39 2.66 2.70 2.80 2.84 2.83 2.89 3.12 3.31 3.18 3.06 3.08 2.97 2.85 2.75 2.67 2.73 2.92 2.83 2.82 2.96 3.11 3.24 3.24 3.37 3.46 3.45 3.48 3.77 3.65 3.51 3.59 3.18 2.99 2.87 2.50 2.46 2.56 2.73 3.04 3.21